www.pogodaiklimat.ru

Погода и климат >> Архив погоды >> Мексика >> Arriaga


ПОГОДА в Arriaga

  • Прогноз погоды в Arriaga
  • Монитор погоды в Arriaga
  • Климат города

АРХИВ ПОГОДЫ в Arriaga

Время (UTC), дата Ветер
(напр.,м/с)
 
Видим.   Явления Облачность Т
(С)
Тd
(С)
f
(%)
Тe
(С)
Тes
(С)
Комфортность P
(гПа)
Po
(гПа)
Тmin
(С)
Tmax
(С)
R
(мм)
R24
(мм)
S
(см)
12 15.04 С 3 3000 м 5/5 840 м
[Cu Sc]
+26.8 +23.8 84 +37 +37 очень
душно
1013.8 1008.2 +26.5 +35.4
15 15.04 С 7 5000 м 4/4 840 м
[Cu hum]
+26.8 +18.3 60 +32 +33 очень
душно
1016.2 1010.6
18 15.04 С 7 5000 м 4/4 840 м
[Cu hum]
+30.0 +25.5 77 +44 +48 опасность
перегрева
1015.4 1009.8 +26.5 +35.4
21 15.04 С 2 5000 м 5/5 800 м
[Cu hum]
+30.2 +25.7 77 +45 +51 опасность
перегрева
1014.1 1008.5
00 16.04 С 2 3000 м 4/4 600 м
[Cu hum]
+29.8 +23.7 70 +41 +41 опасность
перегрева
1014.9 1009.4 +26.5 +35.2
03 16.04 С 2 1000 м ясно +25.5 +21.1 77 +32 +32 очень
душно
1017.2 1011.7
12 16.04 С 2 3000 м 3/3 600 м
[Cu hum]
+23.4 +18.4 74 +30 +30 очень
душно
1015.5 1009.8 +20.0 +35.2
15 16.04 С 2 4000 м 4/0 2000 м
[Ac lent]
+24.4 +19.8 76 +30 +37 очень
душно
1016.8 1011.1
18 16.04 С 1 4000 м ясно +31.6 +26.9 76 +49 +75 опасность
перегрева
1015.4 1009.8 +20.0 +32.4
21 16.04 С 5 4000 м 1/1 840 м
[Cu hum]
+31.8 +26.8 75 +49 +55 опасность
перегрева
1012.9 1007.4
00 17.04 С 5 3000 м 1/1 600 м
[Cu hum]
+28.6 +23.7 75 +39 +39 очень
душно
1012.6 1007.1 +20.0 +34.4
03 17.04 С 6 1000 м 1/1 840 м
[Cu hum]
+26.0 +24.6 92 +37 +37 очень
душно
1015.1 1009.6
06 17.04 С 6 1000 м 1/1 840 м
[Cu hum]
+25.4 +24.3 94 +35 +35 очень
душно
1015.6 1010.1 +20.0 +34.4
12 17.04 С 8 1000 м 3/3 840 м
[Cu hum]
+23.8 +22.7 94 +31 +31 очень
душно
1013.9 1008.3 +22.0 +34.4
15 17.04 С 7 3000 м 4/4 840 м
[Cu hum]
+25.0 +22.2 84 +32 +34 очень
душно
1014.5 1009.0
18 17.04 С 2 3000 м 3/3 840 м
[Cu hum]
+32.6 +23.8 60 +44 +60 опасность
перегрева
1013.2 1007.7 +22.0 +34.2
21 17.04 С 2 3000 м 3/3 840 м
[Cu hum]
+38.0 +29.1 61 +62 +71 опасность
перегрева
1009.0 1003.5
00 18.04 С 1 3000 м 1/1 600 м
[Cu hum]
+33.2 +27.1 70 +51 +52 опасность
перегрева
1009.5 1004.1 +22.0 +40.4
03 18.04 С 2 1000 м 1/1 840 м
[Cu hum]
+29.2 +24.0 74 +41 +41 опасность
перегрева
1011.7 1006.3
06 18.04 С 2 1000 м 1/1 840 м
[Cu hum]
+27.6 +23.4 78 +37 +37 очень
душно
1013.1 1007.7 +22.0 +40.4
09 18.04 штиль 0 100 м ясно +26.2 +23.7 86 +36 +36 очень
душно
1011.8 1006.2
12 18.04 штиль 0 1000 м ясно +25.2 +23.3 89 +34 +34 очень
душно
1011.7 1006.2 +22.0 +40.4
15 18.04 штиль 0 4000 м дым ясно +29.8 +24.1 72 +42 +55 опасность
перегрева
1012.9 1007.3
18 18.04 штиль 0 4000 м дым ясно +36.4 +29.5 68 +62 +91 опасность
перегрева
1011.8 1006.3 +22.0 +37.8
21 18.04 С 2 4000 м дым ясно +35.8 +30.8 76 +66 +79 опасность
перегрева
1009.8 1004.3
00 19.04 С 1 4000 м дым ясно +32.8 +27.9 76 +53 +54 опасность
перегрева
1010.0 1004.6 +22.0 +39.0
03 19.04 штиль 0 100 м ясно +29.0 +26.4 86 +44 +44 опасность
перегрева
1012.1 1006.6
06 19.04 штиль 0 100 м ясно +26.8 +25.2 91 +39 +39 очень
душно
1012.6 1007.1 +22.0 +39.0
09 19.04 штиль 0 100 м ясно +25.4 +24.3 94 +35 +35 очень
душно
1011.5 1005.9
12 19.04 штиль 0 1000 м ясно +23.4 +22.3 94 +32 +32 очень
душно
1011.5 1005.9 +21.0 +39.0
15 19.04 С 2 4000 м дым ясно +30.8 +25.2 72 +45 +55 опасность
перегрева
1012.9 1007.3
18 19.04 С 3 4000 м дым ясно +34.8 +27.0 64 +53 +71 опасность
перегрева
1012.5 1007.0 +21.0 +36.0
21 19.04 С 3 3000 м 3/3 840 м
[Cu hum]
+36.4 +25.6 54 +51 +59 опасность
перегрева
1009.7 1004.1
00 20.04 С 2 5000 м 3/3 600 м
[Cu hum]
+32.8 +25.4 65 +47 +47 опасность
перегрева
1014.8 1005.4 +21.0 +38.2
03 20.04 С 4 100 м ясно +30.2 +25.5 76 +44 +44 опасность
перегрева
1011.5 1006.1
09 20.04 С 4 100 м ясно +28.2 +24.4 80 +40 +40 очень
душно
1011.3 1005.8
12 20.04 С 3 1000 м 3/3 600 м
[Cu hum]
+28.0 +21.8 69 +36 +36 очень
душно
1012.1 1006.6 +24.0 +38.2
15 20.04 С 2 5000 м 3/3 800 м
[Cu hum]
+30.6 +24.7 71 +43 +51 опасность
перегрева
1012.6 1007.1
18 20.04 С 2 5000 м 4/4 800 м
[Cu hum]
+35.4 +28.7 68 +58 +71 опасность
перегрева
1011.5 1006.0 +24.0 +37.0
21 20.04 С 3 3000 м 4/0 2000 м
[Ac trans]
+37.0 +29.4 65 +61 +70 опасность
перегрева
1008.9 1003.5
00 21.04 С 3 2000 м 4/0 2000 м
[Ac trans]
+33.0 +26.4 68 1009.3 1004.1 +24.0 +39.2
03 21.04 С 6 1000 м 3/3 840 м
[Cu hum]
+30.4 +26.5 80 +47 +47 опасность
перегрева
1011.8 1006.1
06 21.04 С 2 1000 м 3/3 840 м
[Cu hum]
+29.6 +24.4 74 +42 +42 опасность
перегрева
1012.2 1007.7 +24.0 +39.2
09 21.04 С 1 1000 м ясно +28.8 +23.3 72 +39 +39 очень
душно
1012.0 1005.5
12 21.04 С 5 3000 м 3/3 840 м
[Sc diur, vesp]
+28.4 +25.7 85 +42 +42 опасность
перегрева
1010.8 1005.3 +25.5 +39.2
15 21.04 С 2 5000 м ясно +31.8 +27.9 80 +52 +62 опасность
перегрева
1011.7 1006.2
18 21.04 С 1 5000 м 4/4 840 м
[Cu hum]
+36.2 +27.4 61 +55 +71 опасность
перегрева
1010.5 1005.0 +25.5 +38.6
21 21.04 штиль 0 5000 м 4/4 840 м
[Sc diur, vesp]
+36.4 +29.6 68 +62 +72 опасность
перегрева
1008.3 1002.9
00 22.04 штиль 0 5000 м 4/4 600 м
[Sc diur, vesp]
+32.0 +27.1 75 +50 +50 опасность
перегрева
1008.7 1003.3 +25.5 +38.8
03 22.04 штиль 0 3000 м 4/0
[Cs]
+29.0 +27.4 91 +47 +47 опасность
перегрева
1010.8 1005.4
06 22.04 штиль 0 3000 м ясно +28.0 +26.4 91 +43 +43 опасность
перегрева
1011.7 1006.3 +25.5 +38.8
09 22.04 штиль 0 1000 м ясно +26.4 +24.5 89 +37 +37 очень
душно
1011.3 1005.7

 

Местоположение метеостанции Arriaga (Мексика): широта 16.23 долгота -93.90 высота над уровнем моря 48 м.

В архиве по умолчанию представлена погода в Arriaga за последнюю неделю. Архивные данные за месяц целиком и за предыдущие месяцы, начиная с января 2011 года, Вы можете получить, выбрав интересующий диапазон дат из раскрывающегося списка и нажав кнопку "Ввод!".


*Определитесь, кто Вы:
робот инопланетянин человек

Внимание! Время в таблицах - всемирное. Для получения местного времени необходимо прибавить поправку, которая в Arriaga равна -6 ч.

Смотрите также архив погоды в соседних городах и на ближайших метеорологических станциях:

Погода в Tuxtla Gutierrez (Мексика) (100 км)
Погода в Salina Cruz (Мексика) (137 км)
Погода в Sn. Cristobal Las Casas (Мексика) (147 км)
Погода в Comitan (Мексика) (189 км)
Погода в Coatzacoalcos (Мексика) (218 км)
Погода в Villahermosa (Мексика) (220 км)
Погода в Tapachula City (Мексика) (229 км)
Погода в Huehuetenango (Гватемала) (280 км)
Погода в Puerto Angel (Мексика) (283 км)
Погода в Oaxaca (Мексика) (313 км)

Пояснения к столбцам:

Ветер - указаны скорость ветра в м/с - средняя за 10 мин, порывы в срок и между сроками (в фигурных скобках) и направление, откуда дует ветер: С - северный, СВ - северо-восточный, В - восточный, ЮВ - юго-восточный, Ю - южный, ЮЗ - юго-западный, З - западный, СЗ - северо-западный.
Видимость - горизонтальная дальность видимости в метрах или километрах. При видимости от 1 до 10 км при отсутствии осадков обычно наблюдается дымка, при ухудшении видимости до 1 км и менее - туман. В сухую погоду видимость может ухудшаться дымом, пылью или мглою.
Явления - указаны атмосферные явления, наблюдавшиеся в срок или в последний час перед сроком; фигурными скобками обозначены явления, наблюдавшиеся между сроками (за 1-3 часа до срока); квадратными скобками обозначены град или гололедные отложения с указанием их диаметра в мм.
Облачность - указаны через наклонную черту общая и нижняя облачность в баллах и высота нижней границы облаков в метрах; квадратными скобками обозначены формы облаков: Ci - перистые, Cs - перисто-слоистые, Cc - перисто-кучевые, Ac - высококучевые, As - высокослоистые, Sc - слоисто-кучевые, Ns - слоисто-дождевые, Cu - кучевые, Cb - кучево-дождевые. Подробнее классификацию облаков см. в Атласе облаков (PDF).
T - Температура воздуха - температура, измеренная на высоте 2 м над землей.
Td - Температура точки росы - температура, при понижении до которой содержащийся в воздухе водяной пар достигнет насыщения.
f - Относительная влажность воздуха - влажноcть воздуха, измеренная на высоте 2 м над землей.
Te - Эффективная температура - температура, которую ощущает одетый по сезону человек в тени. Характеристика душности погоды. При расчете учитывается влияние влажности воздуха и скорости ветра на теплоощущения человека.
Tes - Эффективная температура на солнце - температура, которую ощущает человек, с поправкой на солнечный нагрев. Характеристика знойности погоды. Зависит от высоты солнца над горизонтом, облачности и скорости ветра. Ночью, в пасмурную погоду, а также при ветре 12 м/с и более поправка равна нулю.
P - Атмосферное давление - приведенное к уровню моря атмосферное давление.
Po - Атмосферное давление - измеренное на уровне метеостанции атмосферное давление.
Tmin - Минимальная температура - минимум температуры воздуха на высоте 2 м над землей.
Tmax - Максимальная температура - максимум температуры воздуха на высоте 2 м над землей.
R - Количество осадков - Количество выпавших осадков за период времени, мм. При наведении курсора мыши на число - период времени, за который выпало указанное количество осадков.
R24 - Количество осадков - Количество выпавших осадков за 24 часа, мм.
S - Снежный покров - Высота снежного покрова, см. При наведении курсора мыши на число - состояние снежного покрова и степень покрытия местности в баллах.